This is the latest recevied weather packets stored in our database for station/object WA9NNN-10. If no packets are shown the sender has not sent any weather packets the latest 10 day(s).
| Time | Temp. | Humidity | Pressure | Rain* | Wind** | Luminosity | Snow |
|---|---|---|---|---|---|---|---|
| 1777914396 | 26.11° C | 38% | 1000.5 hPa | 0 mm | - | - | - |
| 1777914097 | 26.11° C | 37% | 1000.6 hPa | 0 mm | - | - | - |
| 1777913797 | 26.11° C | 38% | 1000.7 hPa | 0 mm | - | - | - |
| 1777913497 | 26.11° C | 37% | 1000.6 hPa | 0 mm | - | - | - |
| 1777913197 | 26.11° C | 37% | 1000.6 hPa | 0 mm | - | - | - |
| 1777912897 | 25.56° C | 37% | 1000.7 hPa | 0 mm | - | - | - |
| 1777912597 | 25.56° C | 37% | 1000.9 hPa | 0 mm | - | - | - |
| 1777912297 | 25° C | 38% | 1001.1 hPa | 0 mm | - | - | - |
| 1777911997 | 25.56° C | 37% | 1001.2 hPa | 0 mm | - | - | - |
| 1777911697 | 25.56° C | 37% | 1001.3 hPa | 0 mm | - | - | - |
| 1777911397 | 25° C | 37% | 1001.4 hPa | 0 mm | - | - | - |
| 1777911097 | 25° C | 37% | 1001.4 hPa | 0 mm | - | - | - |
| 1777910796 | 24.44° C | 37% | 1001.4 hPa | 0 mm | - | - | - |
| 1777910497 | 24.44° C | 37% | 1001.5 hPa | 0 mm | - | - | - |
| 1777910197 | 24.44° C | 37% | 1001.6 hPa | 0 mm | - | - | - |
| 1777909897 | 24.44° C | 38% | 1001.7 hPa | 0 mm | - | - | - |
| 1777909596 | 24.44° C | 38% | 1001.8 hPa | 0 mm | - | - | - |
| 1777909297 | 23.89° C | 39% | 1001.8 hPa | 0 mm | - | - | - |
| 1777908996 | 23.89° C | 38% | 1001.9 hPa | 0 mm | - | - | - |
| 1777908697 | 23.33° C | 39% | 1001.9 hPa | 0 mm | - | - | - |
| 1777908396 | 23.33° C | 39% | 1002.1 hPa | 0 mm | - | - | - |
| 1777908097 | 23.33° C | 40% | 1002.1 hPa | 0 mm | - | - | - |
| 1777907796 | 22.78° C | 40% | 1002.1 hPa | 0 mm | - | - | - |
| 1777907497 | 22.22° C | 41% | 1002.1 hPa | 0 mm | - | - | - |
| 1777907196 | 21.67° C | 42% | 1002.2 hPa | 0 mm | - | - | - |
* Rain latest hour (hover to see other rain measurements)
** Current wind speed in m/s (hover to see current wind gust speed)